Weather History for Three Rivers, MI

Change the Weather History Date:

Saturday, June 9, 2012

  Actual Average Record
Temperature  
Mean Temperature 72 °F -  
Max Temperature 87 °F 79 °F 93 °F (1964)
Min Temperature 58 °F 55 °F 41 °F (1969)
Cooling Degree Days 8    
Growing Degree Days 22 (Base 50)    
Moisture  
Dew Point 51 °F    
Average Humidity 48    
Maximum Humidity 81    
Minimum Humidity 25    
Precipitation  
Precipitation 0.00 in - - ()
Sea Level Pressure  
Sea Level Pressure 29.95 in    
Wind  
Wind Speed 4 mph (SW)    
Max Wind Speed 17 mph    
Max Gust Speed 23 mph    
Visibility 10 miles    
Events      
Averages and records for this station are not official NWS values.
T = Trace of Precipitation, MM = Missing Value Source: NWS Daily Summary

Daily Weather History Graph

Daily Weather History Graph

Search for Another Location

Airport:

Trip Planner

Search our weather history database for the weather conditions in past years. The results will help you decide how hot, cold, wet, or windy it might be!

Date:

Astronomy

Jun. 09, 2012 Rise Set
Actual Time 6:06 AM EDT 9:16 PM EDT
Civil Twilight 5:32 AM EDT 9:51 PM EDT
Nautical Twilight 4:48 AM EDT 10:35 PM EDT
Astronomical Twilight 3:56 AM EDT 11:27 PM EDT
Moon 12:35 AM EDT (6/9) 11:56 AM EDT (6/9)
Length of Visible Light 16h 18m
Length of Day
15h 10m
Waning Gibbous, 68% of the Moon is Illuminated
Jun 9
Waning Gibbous
Jun 11
Last Quarter
Jun 19
New
Jun 26
First Quarter
Jul 3
Full

Hourly Weather History & Observations

Time (EDT) Temp. Dew Point Humidity Pressure Visibility Wind Dir Wind Speed Gust Speed Precip Events Conditions
12:14 AM 61.9 °F 56.1 °F 81% 29.96 in 10.0 mi Calm Calm - N/A   Clear
12:54 AM 63.1 °F 53.4 °F 71% 29.96 in 10.0 mi Calm Calm - N/A   Clear
1:14 AM 63.1 °F 52.9 °F 69% 29.96 in 10.0 mi Calm Calm - N/A   Clear
1:34 AM 63.0 °F 53.8 °F 72% 29.95 in 10.0 mi Calm Calm - N/A   Clear
1:54 AM 62.1 °F 53.4 °F 73% 29.95 in 10.0 mi Calm Calm - N/A   Clear
2:14 AM 61.9 °F 53.4 °F 74% 29.95 in 10.0 mi Calm Calm - N/A   Clear
2:34 AM 62.1 °F 53.1 °F 72% 29.95 in 10.0 mi SSW 3.5 mph - N/A   Clear
2:54 AM 61.9 °F 53.2 °F 73% 29.95 in 10.0 mi SSW 4.6 mph - N/A   Clear
3:14 AM 61.9 °F 52.3 °F 71% 29.95 in 10.0 mi SSW 4.6 mph - N/A   Clear
3:34 AM 62.4 °F 50.7 °F 66% 29.95 in 10.0 mi Calm Calm - N/A   Clear
3:54 AM 62.6 °F 51.1 °F 66% 29.95 in 10.0 mi SSW 3.5 mph - N/A   Clear
4:14 AM 61.3 °F 52.3 °F 72% 29.94 in 10.0 mi SSW 4.6 mph - N/A   Clear
4:34 AM 60.4 °F 51.4 °F 72% 29.94 in 10.0 mi SSW 4.6 mph - N/A   Clear
4:54 AM 60.6 °F 51.4 °F 72% 29.94 in 10.0 mi SSW 4.6 mph - N/A   Clear
5:14 AM 60.3 °F 51.1 °F 72% 29.95 in 10.0 mi SSW 4.6 mph - N/A   Clear
5:34 AM 60.6 °F 51.1 °F 71% 29.95 in 10.0 mi Calm Calm - N/A   Clear
5:54 AM 59.4 °F 50.9 °F 74% 29.96 in 10.0 mi Calm Calm - N/A   Clear
6:14 AM 58.5 °F 50.9 °F 76% 29.96 in 10.0 mi Calm Calm - N/A   Clear
6:34 AM 59.4 °F 52.3 °F 78% 29.96 in 10.0 mi WSW 3.5 mph - N/A   Clear
6:54 AM 59.4 °F 52.9 °F 79% 29.96 in 10.0 mi WNW 3.5 mph - N/A   Clear
7:14 AM 61.3 °F 53.6 °F 76% 29.96 in 10.0 mi Calm Calm - N/A   Clear
7:34 AM 63.7 °F 52.9 °F 68% 29.97 in 10.0 mi SSW 3.5 mph - N/A   Clear
7:54 AM 65.1 °F 53.6 °F 66% 29.97 in 10.0 mi NNW 3.5 mph - N/A   Clear
8:14 AM 66.7 °F 53.6 °F 63% 29.98 in 10.0 mi SW 3.5 mph - N/A   Clear
8:34 AM 69.6 °F 54.0 °F 57% 29.98 in 10.0 mi SW 3.5 mph - N/A   Clear
8:54 AM 72.0 °F 53.8 °F 53% 29.99 in 10.0 mi SW 4.6 mph - N/A   Clear
9:14 AM 74.1 °F 52.9 °F 47% 30.00 in 10.0 mi SW 5.8 mph - N/A   Clear
9:33 AM 75.9 °F 52.3 °F 44% 30.00 in 10.0 mi WSW 5.8 mph - N/A   Clear
9:54 AM 77.2 °F 50.5 °F 39% 30.00 in 10.0 mi SW 9.2 mph - N/A   Clear
10:14 AM 78.1 °F 50.2 °F 38% 30.00 in 10.0 mi WSW 9.2 mph - N/A   Clear
10:34 AM 79.7 °F 49.5 °F 35% 29.99 in 10.0 mi West 13.8 mph 18.4 mph N/A   Clear
10:54 AM 80.4 °F 49.6 °F 34% 29.98 in 10.0 mi West 10.4 mph - N/A   Clear
11:14 AM 81.3 °F 50.0 °F 33% 29.99 in 10.0 mi West 12.7 mph 17.3 mph N/A   Clear
11:34 AM 82.4 °F 49.8 °F 32% 29.98 in 10.0 mi WSW 11.5 mph 18.4 mph N/A   Clear
11:54 AM 82.8 °F 49.5 °F 31% 29.98 in 10.0 mi WSW 12.7 mph 17.3 mph N/A   Clear
12:14 PM 83.8 °F 49.3 °F 30% 29.98 in 10.0 mi West 17.3 mph 23.0 mph N/A   Clear
12:34 PM 84.2 °F 49.1 °F 29% 29.97 in 10.0 mi West 11.5 mph - N/A   Clear
12:54 PM 83.8 °F 48.7 °F 29% 29.97 in 10.0 mi West 8.1 mph 21.9 mph N/A   Clear
1:13 PM 83.8 °F 48.7 °F 29% 29.96 in 10.0 mi WSW 9.2 mph 16.1 mph N/A   Clear
1:34 PM 85.8 °F 49.1 °F 28% 29.96 in 10.0 mi West 11.5 mph 18.4 mph N/A   Clear
1:54 PM 86.0 °F 49.3 °F 28% 29.95 in 10.0 mi WSW 10.4 mph - N/A   Clear
2:14 PM 86.0 °F 48.9 °F 28% 29.95 in 10.0 mi WSW 8.1 mph - N/A   Clear
2:34 PM 85.8 °F 47.8 °F 27% 29.95 in 10.0 mi West 8.1 mph - N/A   Clear
2:54 PM 86.4 °F 48.6 °F 27% 29.94 in 10.0 mi SW 6.9 mph - N/A   Clear
3:14 PM 86.5 °F 48.2 °F 26% 29.94 in 10.0 mi West 8.1 mph - N/A   Clear
3:34 PM 86.5 °F 48.6 °F 27% 29.93 in 10.0 mi West 3.5 mph - N/A   Clear
3:54 PM 87.1 °F 48.9 °F 27% 29.93 in 10.0 mi SW 8.1 mph - N/A   Clear
4:14 PM 87.4 °F 48.6 °F 26% 29.92 in 10.0 mi WSW 5.8 mph - N/A   Clear
4:34 PM 87.3 °F 48.6 °F 26% 29.92 in 10.0 mi SSW 9.2 mph - N/A   Clear
4:54 PM 87.4 °F 48.0 °F 25% 29.92 in 10.0 mi SW 8.1 mph - N/A   Clear
5:14 PM 87.3 °F 48.0 °F 26% 29.92 in 5.0 mi SSW 8.1 mph 16.1 mph N/A   Haze
5:34 PM 86.2 °F 47.3 °F 26% 29.92 in 10.0 mi WSW 6.9 mph - N/A   Clear
5:54 PM 87.3 °F 48.9 °F 27% 29.92 in 10.0 mi SSW 11.5 mph - N/A   Clear
6:14 PM 86.5 °F 49.3 °F 28% 29.91 in 10.0 mi WSW 4.6 mph - N/A   Clear
6:34 PM 86.2 °F 48.9 °F 27% 29.91 in 10.0 mi SW 5.8 mph - N/A   Clear
6:54 PM 86.0 °F 48.7 °F 27% 29.90 in 10.0 mi West 8.1 mph - N/A   Clear
7:14 PM 85.5 °F 48.2 °F 27% 29.90 in 10.0 mi SW 8.1 mph - N/A   Clear
7:34 PM 85.1 °F 48.9 °F 28% 29.90 in 10.0 mi SW 5.8 mph - N/A   Clear
7:54 PM 84.0 °F 48.6 °F 29% 29.90 in 10.0 mi SW 8.1 mph - N/A   Clear
8:14 PM 82.8 °F 49.3 °F 31% 29.90 in 10.0 mi SSW 8.1 mph - N/A   Clear
8:34 PM 81.1 °F 49.8 °F 33% 29.90 in 10.0 mi SSW 3.5 mph - N/A   Clear
8:54 PM 79.0 °F 51.6 °F 38% 29.90 in 10.0 mi Calm Calm - N/A   Clear
9:14 PM 77.2 °F 53.6 °F 44% 29.91 in 10.0 mi Calm Calm - N/A   Clear
9:35 PM 75.4 °F 53.4 °F 46% 29.91 in 10.0 mi Calm Calm - N/A   Clear
9:54 PM 74.1 °F 54.7 °F 51% 29.92 in 10.0 mi South 3.5 mph - N/A   Clear
10:14 PM 71.6 °F 54.9 °F 55% 29.92 in 10.0 mi South 4.6 mph - N/A   Clear
10:34 PM 71.6 °F 53.4 °F 53% 29.92 in 10.0 mi Calm Calm - N/A   Clear
10:54 PM 71.1 °F 53.1 °F 53% 29.93 in 10.0 mi Calm Calm - N/A   Clear
11:14 PM 72.0 °F 52.3 °F 50% 29.94 in 10.0 mi Calm Calm - N/A   Clear
11:34 PM 70.7 °F 53.6 °F 55% 29.94 in 10.0 mi Calm Calm - N/A   Clear
11:54 PM 70.0 °F 54.7 °F 58% 29.95 in 10.0 mi Calm Calm - N/A   Clear